Regional Weather Roundup
Issued by NWS Burlington, VT

Home | Current Version | Previous Version | Text Only | Print | Product List | Glossary On
Versions: 1 2 3 4 5 6 7 8 9 10 11 12 13 14 15 16 17 18 19 20 21 22 23 24 25 26 27 28 29 30 31 32 33 34 35 36 37 38 39 40 41 42 43 44 45 46 47 48 49 50
000
ASUS41 KBTV 020930
RWRBTV
VERMONT REGIONAL WEATHER ROUNDUP
NATIONAL WEATHER SERVICE BURLINGTON VT
500 AM EDT TUE SEP 02 2014

NOTE: "FAIR" INDICATES FEW OR NO CLOUDS BELOW 12,000 FEET WITH NO
SIGNIFICANT WEATHER AND/OR OBSTRUCTIONS TO VISIBILITY.

* THESE REPORTS ARE NOT UNDER NWS QUALITY CONTROL AND/OR DO NOT
  REPORT WEATHER SUCH AS PRECIPITATION AND FOG.

VTZ001>019-021000-
_____VERMONT_____


CITY           SKY/WX    TMP DP  RH WIND       PRES   REMARKS
BURLINGTON     MOSUNNY   73  66  78 S10       29.82F
MONTPELIER     FOG       59  59 100 CALM      29.92S VSB 3/4
MORRISVILLE    PTSUNNY   59  58  96 CALM      29.88S FOG
ST. JOHNSBURY*   N/A     60  59  96 MISG      29.87F
MIDDLEBURY*    CLOUDY    74  69  83 S8        29.86S
RUTLAND*       CLOUDY    70  64  83 SE6       29.88S
SPRINGFIELD    FOG       62  62 100 CALM      29.90F VSB 1/4
HIGHGATE*      FAIR      71  66  83 S6        29.80S
NEWPORT*       FAIR      62  60  95 SW5       29.88S
BENNINGTON     PTSUNNY   66  65  96 CALM      29.89F
SUTTON*          N/A     61 N/A N/A MISG        N/A
MT. MANSFIELD*   N/A     63 N/A N/A W9G21       N/A

_____LAKE CHAMPLAIN_____


CITY           SKY/WX    TMP DP  RH WIND       PRES   REMARKS
BURTON ISLAND*   N/A     72  66  83 S9          N/A
COLCHESTER RF*   N/A     72  68  88 S18         N/A
DIAMOND ISL*     N/A     70  66  88 SW7         N/A

$$

NYZ007-026>031-035-052-083-021000-
_____NORTHERN NEW YORK_____


CITY           SKY/WX    TMP DP  RH WIND       PRES   REMARKS
PLATTSBURGH    SUNNY     62  61  96 CALM      29.81S FOG
SARANAC LAKE   CLOUDY    59  58  96 CALM      29.87S
MASSENA        CLOUDY    68  67  96 S3        29.78S
OGDENSBURG*    MOSUNNY   72  70  94 S5        29.78S
POTSDAM*       MOSUNNY   72  70  94 S5        29.79F
WATERTOWN      PTSUNNY   75  66  73 S9G18     29.79F
FT DRUM        PTSUNNY   74  66  76 SW8       29.80F
ALBANY         MOSUNNY   73  70  90 S10       29.86F
GLENS FALLS    FOG       65  62  90 N3        29.86S VSB 1

$$
NHZ002-005-011-021000-
_____NEW HAMPSHIRE_____


CITY           SKY/WX    TMP DP  RH WIND       PRES   REMARKS
LEBANON        FOG       63  61  93 CALM      29.89R VSB 1/2
KEENE          CLOUDY    64  55  72 CALM      29.90F
MT WASHINGTON  FOG       54  54 100 W31         N/A  VSB 0
PLYMOUTH       FOG       60  60 100 CALM      29.90S VSB 1/4
WHITEFIELD     SUNNY     56  54  93 CALM      29.90F

$$

_____REGIONAL QUEBEC LOCATIONS_____


CITY           SKY/WX    TMP DP  RH WIND       PRES   REMARKS
MONTREAL       PTSUNNY   72  66  83 SE5       29.77S
QUEBEC CITY    CLOUDY    61  59  94 NE9       29.83F
SHERBROOKE     MOSUNNY   61  59  94 E5        29.85F

_____REGIONAL ONTARIO LOCATIONS_____


CITY           SKY/WX    TMP DP  RH WIND       PRES   REMARKS
OTTAWA         PTSUNNY   72  68  88 S8        29.75F

______KEY______
VSB  - VISIBILITY IN MILES
WCI  - WIND CHILL INDEX
HX   - HEAT INDEX
$$
NNNN


USA.gov is the U.S. government's official web portal to all federal, state and local government web resources and services.